| time (UTC) | temp F | wind direction | speed MPH | gust MPH | rain 1hr in | rain 24hr in | rain mn in | humidity % | barometer mb |
| 20260506181602 | 42 | 342 | 1.0 | 4.0 | 0.07 | 0.73 | 0.59 | 95 | 1004.4 |
| 20260506180101 | 42 | 327 | 1.0 | 5.0 | 0.08 | 0.71 | 0.56 | 95 | 1004.3 |
| 20260506180002 | 42 | 327 | 1.0 | 5.0 | 0.08 | 0.71 | 0.56 | 95 | 1004.4 |
| 20260506174602 | 41 | 349 | 1.0 | 3.0 | 0.08 | 0.69 | 0.55 | 95 | 1004.6 |
| 20260506173101 | 41 | 5 | 0.0 | 5.0 | 0.09 | 0.68 | 0.54 | 95 | 1005.0 |
| 20260506171604 | 41 | 323 | 2.0 | 6.0 | 0.09 | 0.66 | 0.52 | 95 | 1004.9 |
| 20260506170107 | 42 | 5 | 2.0 | 12.0 | 0.07 | 0.63 | 0.49 | 95 | 1004.7 |
| 20260506170002 | 42 | 26 | 1.0 | 12.0 | 0.07 | 0.63 | 0.49 | 95 | 1004.7 |
| 20260506164603 | 43 | 333 | 3.0 | 9.0 | 0.06 | 0.61 | 0.47 | 95 | 1004.9 |
| 20260506164503 | 43 | 328 | 2.0 | 6.0 | 0.06 | 0.61 | 0.47 | 95 | 1004.9 |
| 20260506163106 | 44 | 348 | 1.0 | 6.0 | 0.05 | 0.59 | 0.45 | 95 | 1004.3 |
| 20260506161607 | 44 | 342 | 1.0 | 4.0 | 0.04 | 0.56 | 0.43 | 95 | 1004.3 |
| 20260506160059 | 45 | 351 | 0.0 | 4.0 | 0.05 | 0.56 | 0.42 | 95 | 1004.4 |
| 20260506160002 | 45 | 351 | 1.0 | 4.0 | 0.05 | 0.56 | 0.42 | 95 | 1004.3 |
| 20260506154613 | 45 | 351 | 1.0 | 4.0 | 0.04 | 0.55 | 0.41 | 95 | 1004.4 |
| 20260506153059 | 45 | 18 | 1.0 | 3.0 | 0.04 | 0.54 | 0.40 | 95 | 1004.7 |
| 20260506151600 | 46 | 19 | 1.0 | 5.0 | 0.04 | 0.53 | 0.39 | 95 | 1005.0 |
| 20260506150100 | 46 | 26 | 1.0 | 5.0 | 0.02 | 0.51 | 0.37 | 95 | 1004.8 |
| 20260506150002 | 46 | 26 | 2.0 | 5.0 | 0.02 | 0.51 | 0.37 | 95 | 1004.9 |
| 20260506144604 | 46 | 74 | 0.0 | 3.0 | 0.04 | 0.51 | 0.37 | 96 | 1004.8 |
| 20260506144501 | 46 | 72 | 0.0 | 3.0 | 0.04 | 0.51 | 0.37 | 96 | 1004.8 |
| 20260506143059 | 45 | 30 | 1.0 | 6.0 | 0.04 | 0.50 | 0.36 | 95 | 1004.9 |
| 20260506141604 | 46 | 32 | 0.0 | 3.0 | 0.05 | 0.49 | 0.35 | 95 | 1005.2 |
| 20260506140122 | 45 | 75 | 2.0 | 4.0 | 0.06 | 0.49 | 0.35 | 95 | 1005.2 |
| 20260506140000 | 45 | 74 | 1.0 | 4.0 | 0.06 | 0.49 | 0.35 | 95 | 1005.1 |
| 20260506134700 | 46 | 18 | 3.0 | 6.0 | 0.05 | 0.47 | 0.33 | 95 | 1005.9 |
| 20260506133107 | 45 | 26 | 1.0 | 4.0 | 0.05 | 0.46 | 0.32 | 95 | 1005.2 |
| 20260506131559 | 45 | 9 | 1.0 | 3.0 | 0.03 | 0.44 | 0.30 | 95 | 1005.5 |
| 20260506130100 | 45 | 9 | 0.0 | 3.0 | 0.02 | 0.43 | 0.28 | 95 | 1005.5 |
| 20260506130001 | 45 | 9 | 0.0 | 3.0 | 0.02 | 0.43 | 0.28 | 95 | 1005.5 |
| 20260506124602 | 45 | 5 | 1.0 | 8.0 | 0.01 | 0.42 | 0.28 | 94 | 1005.8 |
| 20260506123100 | 46 | 348 | 1.0 | 4.0 | 0.00 | 0.41 | 0.27 | 94 | 1006.1 |
| 20260506121600 | 47 | 34 | 0.0 | 6.0 | 0.00 | 0.41 | 0.27 | 94 | 1006.3 |
| 20260506120059 | 47 | 12 | 0.0 | 0.0 | 0.01 | 0.41 | 0.27 | 94 | 1005.9 |
| 20260506120001 | 47 | 12 | 0.0 | 0.0 | 0.01 | 0.41 | 0.27 | 94 | 1005.9 |
| 20260506113102 | 47 | 12 | 0.0 | 0.0 | 0.01 | 0.41 | 0.27 | 95 | 1005.8 |
| 20260506111606 | 46 | 12 | 0.0 | 0.0 | 0.01 | 0.41 | 0.27 | 94 | 1005.7 |
| 20260506110058 | 46 | 12 | 0.0 | 2.0 | 0.00 | 0.40 | 0.26 | 94 | 1005.8 |
| 20260506110002 | 46 | 12 | 0.0 | 4.0 | 0.00 | 0.40 | 0.26 | 94 | 1005.7 |
| 20260506103102 | 46 | 355 | 0.0 | 0.0 | 0.01 | 0.40 | 0.26 | 94 | 1005.8 |
| 20260506101559 | 47 | 20 | 2.0 | 5.0 | 0.01 | 0.40 | 0.26 | 94 | 1005.8 |
| 20260506100002 | 47 | 17 | 0.0 | 4.0 | 0.01 | 0.40 | 0.26 | 94 | 1006.0 |
| 20260506094559 | 47 | 19 | 1.0 | 2.0 | 0.00 | 0.39 | 0.25 | 94 | 1006.7 |
| 20260506093102 | 47 | 13 | 0.0 | 5.0 | 0.00 | 0.39 | 0.25 | 94 | 1006.2 |
| 20260506091601 | 48 | 348 | 0.0 | 4.0 | 0.02 | 0.39 | 0.25 | 94 | 1006.2 |
| 20260506090058 | 48 | 14 | 2.0 | 4.0 | 0.02 | 0.39 | 0.25 | 94 | 1006.3 |
| 20260506090001 | 48 | 14 | 2.0 | 4.0 | 0.02 | 0.39 | 0.25 | 94 | 1006.3 |
| 20260506084603 | 48 | 9 | 0.0 | 3.0 | 0.02 | 0.39 | 0.25 | 94 | 1006.4 |
| 20260506083100 | 49 | 9 | 0.0 | 2.0 | 0.02 | 0.39 | 0.25 | 94 | 1006.9 |
| 20260506081601 | 49 | 360 | 0.0 | 6.0 | 0.00 | 0.37 | 0.23 | 94 | 1006.2 |
| 20260506073059 | 50 | 14 | 0.0 | 0.0 | 0.03 | 0.37 | 0.23 | 94 | 1006.1 |
| 20260506071559 | 50 | 14 | 0.0 | 0.0 | 0.03 | 0.37 | 0.23 | 94 | 1006.2 |
| 20260506061613 | 50 | 14 | 0.0 | 0.0 | 0.04 | 0.34 | 0.20 | 94 | 1006.2 |
| 20260506050104 | 51 | 16 | 0.0 | 0.0 | 0.14 | 0.28 | 0.15 | 93 | 1006.9 |
| 20260506044639 | 50 | 15 | 0.0 | 5.0 | 0.17 | 0.27 | 0.13 | 92 | 1006.1 |
| 20260506043059 | 51 | 14 | 1.0 | 5.0 | 0.17 | 0.25 | 0.11 | 92 | 1006.8 |
| 20260506043026 | 51 | 19 | 2.0 | 5.0 | 0.17 | 0.25 | 0.11 | 92 | 1006.8 |
| 20260506041559 | 51 | 333 | 2.0 | 8.0 | 0.10 | 0.18 | 0.04 | 91 | 1007.0 |
| 20260506040059 | 53 | 14 | 2.0 | 6.0 | 0.06 | 0.14 | 0.00 | 90 | 1006.1 |
| 20260506040004 | 53 | 15 | 2.0 | 6.0 | 0.06 | 0.14 | 0.00 | 90 | 1006.1 |
| 20260506034600 | 54 | 344 | 1.0 | 13.0 | 0.03 | 0.10 | 0.10 | 89 | 1005.8 |
| 20260506033159 | 56 | 310 | 1.0 | 5.0 | 0.01 | 0.08 | 0.08 | 85 | 1005.4 |
| 20260506031559 | 57 | 259 | 0.0 | 3.0 | 0.01 | 0.08 | 0.08 | 84 | 1005.2 |
| 20260506030100 | 58 | 218 | 0.0 | 5.0 | 0.01 | 0.08 | 0.08 | 81 | 1005.2 |
| 20260506030001 | 58 | 218 | 0.0 | 5.0 | 0.01 | 0.08 | 0.08 | 81 | 1005.1 |
| 20260506024602 | 59 | 254 | 0.0 | 2.0 | 0.00 | 0.07 | 0.07 | 76 | 1005.1 |
| 20260506023102 | 59 | 255 | 0.0 | 7.0 | 0.00 | 0.07 | 0.07 | 76 | 1005.1 |
| 20260506021610 | 59 | 206 | 2.0 | 7.0 | 0.00 | 0.07 | 0.07 | 76 | 1005.3 |
| 20260506020058 | 58 | 194 | 0.0 | 3.0 | 0.00 | 0.07 | 0.07 | 78 | 1004.9 |
| 20260506020001 | 58 | 194 | 0.0 | 3.0 | 0.00 | 0.07 | 0.07 | 77 | 1004.9 |
| 20260506014603 | 58 | 184 | 0.0 | 5.0 | 0.00 | 0.07 | 0.07 | 78 | 1004.6 |
| 20260506013105 | 58 | 210 | 0.0 | 4.0 | 0.00 | 0.07 | 0.07 | 79 | 1004.7 |
| 20260506011559 | 58 | 222 | 0.0 | 4.0 | 0.00 | 0.07 | 0.07 | 79 | 1004.8 |
| 20260506010117 | 58 | 221 | 0.0 | 7.0 | 0.00 | 0.07 | 0.07 | 80 | 1004.8 |
| 20260506010001 | 58 | 221 | 0.0 | 7.0 | 0.00 | 0.07 | 0.07 | 80 | 1004.8 |
| 20260506004606 | 58 | 213 | 0.0 | 8.0 | 0.00 | 0.07 | 0.07 | 81 | 1004.6 |
| 20260506001600 | 58 | 231 | 0.0 | 6.0 | 0.00 | 0.07 | 0.07 | 82 | 1004.3 |
| 20260506000100 | 58 | 243 | 1.0 | 9.0 | 0.00 | 0.07 | 0.07 | 82 | 1004.5 |
| 20260505234610 | 58 | 230 | 0.0 | 4.0 | 0.00 | 0.07 | 0.07 | 82 | 1004.1 |
| 20260505233100 | 58 | 202 | 1.0 | 7.0 | 0.00 | 0.07 | 0.07 | 83 | 1004.0 |
| 20260505231601 | 58 | 185 | 2.0 | 5.0 | 0.00 | 0.07 | 0.07 | 84 | 1003.7 |
| 20260505230001 | 57 | 293 | 0.0 | 3.0 | 0.00 | 0.07 | 0.07 | 85 | 1003.8 |
| 20260505224600 | 57 | 265 | 0.0 | 8.0 | 0.00 | 0.07 | 0.07 | 87 | 1003.5 |
| 20260505223059 | 57 | 223 | 1.0 | 7.0 | 0.00 | 0.07 | 0.07 | 88 | 1003.8 |
| 20260505221600 | 57 | 200 | 1.0 | 5.0 | 0.00 | 0.07 | 0.07 | 89 | 1003.6 |
| 20260505220059 | 57 | 206 | 0.0 | 3.0 | 0.00 | 0.07 | 0.07 | 87 | 1003.2 |
| 20260505220001 | 58 | 206 | 0.0 | 3.0 | 0.00 | 0.07 | 0.07 | 88 | 1003.1 |
| 20260505214624 | 58 | 295 | 0.0 | 2.0 | 0.00 | 0.07 | 0.07 | 88 | 1003.1 |
| 20260505213104 | 57 | 294 | 1.0 | 5.0 | 0.00 | 0.07 | 0.07 | 88 | 1003.2 |
| 20260505211559 | 57 | 286 | 1.0 | 4.0 | 0.01 | 0.07 | 0.07 | 88 | 1003.4 |
| 20260505210104 | 57 | 296 | 2.0 | 10.0 | 0.06 | 0.07 | 0.07 | 88 | 1003.4 |
| 20260505210001 | 57 | 272 | 3.0 | 10.0 | 0.06 | 0.07 | 0.07 | 88 | 1003.4 |
| 20260505204605 | 57 | 217 | 1.0 | 6.0 | 0.06 | 0.07 | 0.07 | 89 | 1002.9 |
| 20260505203100 | 58 | 303 | 1.0 | 5.0 | 0.07 | 0.07 | 0.07 | 88 | 1002.6 |
| 20260505201600 | 59 | 319 | 2.0 | 14.0 | 0.06 | 0.06 | 0.06 | 84 | 1003.0 |
| 20260505201523 | 60 | 305 | 2.0 | 14.0 | 0.06 | 0.06 | 0.06 | 83 | 1003.0 |
| 20260505200107 | 65 | 331 | 2.0 | 10.0 | 0.01 | 0.01 | 0.01 | 62 | 1001.8 |
| 20260505194608 | 68 | 180 | 10.0 | 21.0 | 0.01 | 0.01 | 0.01 | 57 | 1000.9 |
| 20260505193100 | 72 | 215 | 6.0 | 19.0 | 0.00 | 0.00 | 0.00 | 42 | 1000.4 |
| 20260505191600 | 72 | 227 | 4.0 | 21.0 | 0.00 | 0.00 | 0.00 | 44 | 1000.2 |
| 20260505191513 | 72 | 253 | 4.0 | 15.0 | 0.00 | 0.00 | 0.00 | 43 | 1000.2 |
| 20260505190059 | 73 | 246 | 8.0 | 16.0 | 0.00 | 0.00 | 0.00 | 40 | 1000.3 |
| 20260505190001 | 73 | 192 | 8.0 | 16.0 | 0.00 | 0.00 | 0.00 | 41 | 1000.4 |
| 20260505184600 | 73 | 297 | 4.0 | 12.0 | 0.00 | 0.00 | 0.00 | 41 | 1000.6 |
| 20260505183059 | 75 | 268 | 5.0 | 15.0 | 0.00 | 0.00 | 0.00 | 38 | 1000.6 |